Weather History for Red Oak, IA

Change the Weather History Date:

Monday, December 17, 2012

  Actual Average Record
Temperature  
Mean Temperature 32 °F -  
Max Temperature 37 °F 35 °F 59 °F (1976)
Min Temperature 28 °F 16 °F -9 °F (1951)
Degree Days  
Heating Degree Days 32    
Moisture  
Dew Point 28 °F    
Average Humidity 80    
Maximum Humidity 86    
Minimum Humidity 75    
Precipitation  
Precipitation 0.00 in - - ()
Sea Level Pressure  
Sea Level Pressure 29.71 in    
Wind  
Wind Speed 2 mph (South)    
Max Wind Speed 9 mph    
Max Gust Speed -    
Visibility 5 miles    
Events      
Averages and records for this station are not official NWS values.
T = Trace of Precipitation, MM = Missing Value Source: NWS Daily Summary

Daily Weather History Graph

Daily Weather History Graph

Search for Another Location

Airport:

Trip Planner

Search our weather history database for the weather conditions in past years. The results will help you decide how hot, cold, wet, or windy it might be!

Date:

Astronomy

Dec. 17, 2012 Rise Set
Actual Time 7:40 AM CST 4:54 PM CST
Civil Twilight 7:09 AM CST 5:25 PM CST
Nautical Twilight 6:34 AM CST 6:00 PM CST
Astronomical Twilight 6:01 AM CST 6:33 PM CST
Moon 10:47 AM CST (12/17) 10:19 PM CST (12/17)
Length of Visible Light 10h 16m
Length of Day
9h 13m
Waxing Crescent, 25% of the Moon is Illuminated
Dec 17
Waxing Crescent
Dec 19
First Quarter
Dec 28
Full
Jan 4
Last Quarter
Jan 11
New

Hourly Weather History & Observations

Time (CST) Temp. Windchill Dew Point Humidity Pressure Visibility Wind Dir Wind Speed Gust Speed Precip Events Conditions
12:15 AM 33.8 °F 30.8 °F 28.4 °F 81% 29.79 in 7.0 mi NW 3.5 mph - N/A   Overcast
12:35 AM 35.6 °F 32.8 °F 28.4 °F 75% 29.78 in 7.0 mi North 3.5 mph - N/A   Overcast
12:55 AM 33.8 °F 30.8 °F 28.4 °F 81% 29.77 in 7.0 mi WNW 3.5 mph - N/A   Overcast
1:15 AM 33.8 °F - 28.4 °F 81% 29.77 in 7.0 mi Calm Calm - N/A   Mostly Cloudy
1:35 AM 33.8 °F - 28.4 °F 81% 29.77 in 7.0 mi Calm Calm - N/A   Mostly Cloudy
1:55 AM 33.8 °F - 28.4 °F 81% 29.78 in 5.0 mi Calm Calm - N/A   Haze
2:15 AM 33.8 °F - 28.4 °F 81% 29.76 in 5.0 mi Calm Calm - N/A   Haze
2:35 AM 33.8 °F - 28.4 °F 81% 29.75 in 5.0 mi Calm Calm - N/A   Haze
2:55 AM 33.8 °F - 28.4 °F 81% 29.75 in 5.0 mi Calm Calm - N/A   Haze
3:15 AM 32.0 °F - 26.6 °F 80% 29.75 in 5.0 mi Calm Calm - N/A   Haze
3:35 AM 30.2 °F - 26.6 °F 86% 29.75 in 4.0 mi Calm Calm - N/A   Haze
3:55 AM 32.0 °F - 26.6 °F 80% 29.75 in 4.0 mi Calm Calm - N/A   Haze
4:15 AM 30.2 °F - 26.6 °F 86% 29.75 in 4.0 mi Calm Calm - N/A   Haze
4:35 AM 32.0 °F - 26.6 °F 80% 29.74 in 3.0 mi Calm Calm - N/A   Haze
4:55 AM 30.2 °F - 26.6 °F 86% 29.74 in 3.0 mi Calm Calm - N/A   Mostly Cloudy
5:15 AM 30.2 °F - 26.6 °F 86% 29.75 in 3.0 mi Calm Calm - N/A   Haze
5:35 AM 32.0 °F - 26.6 °F 80% 29.75 in 4.0 mi Calm Calm - N/A   Haze
6:15 AM 30.2 °F - 26.6 °F 86% 29.75 in 3.0 mi Calm Calm - N/A   Overcast
6:35 AM 30.2 °F - 26.6 °F 86% 29.75 in 4.0 mi Calm Calm - N/A   Haze
6:55 AM 30.2 °F - 26.6 °F 86% 29.75 in 3.0 mi Calm Calm - N/A   Haze
7:15 AM 30.2 °F - 24.8 °F 80% 29.75 in 2.5 mi Calm Calm - N/A   Haze
7:35 AM 30.2 °F - 24.8 °F 80% 29.74 in 2.5 mi Calm Calm - N/A   Haze
7:55 AM 28.4 °F - 24.8 °F 86% 29.74 in 3.0 mi Calm Calm - N/A   Haze
8:15 AM 28.4 °F - 24.8 °F 86% 29.74 in 2.0 mi Calm Calm - N/A   Overcast
8:35 AM 30.2 °F - 24.8 °F 80% 29.73 in 2.0 mi Calm Calm - N/A   Haze
8:55 AM 30.2 °F - 26.6 °F 86% 29.73 in 2.5 mi Calm Calm - N/A   Clear
9:15 AM 33.8 °F - 28.4 °F 81% 29.73 in 3.0 mi Calm Calm - N/A   Haze
9:35 AM 33.8 °F - 28.4 °F 81% 29.72 in 4.0 mi Calm Calm - N/A   Haze
9:55 AM 35.6 °F 31.7 °F 28.4 °F 75% 29.71 in 4.0 mi South 4.6 mph - N/A   Haze
10:15 AM 35.6 °F 31.7 °F 30.2 °F 81% 29.72 in 4.0 mi South 4.6 mph - N/A   Haze
10:35 AM 35.6 °F 32.8 °F 30.2 °F 81% 29.73 in 4.0 mi SSW 3.5 mph - N/A   Haze
10:55 AM 35.6 °F 29.9 °F 30.2 °F 81% 29.73 in 4.0 mi South 6.9 mph - N/A   Haze
11:15 AM 37.4 °F 32.8 °F 30.2 °F 75% 29.72 in 4.0 mi South 5.8 mph - N/A   Haze
11:35 AM 37.4 °F 31.4 °F 30.2 °F 75% 29.72 in 4.0 mi South 8.1 mph - N/A   Haze
11:55 AM 35.6 °F 28.6 °F 30.2 °F 81% 29.71 in 3.0 mi SSW 9.2 mph - N/A   Haze
12:15 PM 35.6 °F 29.2 °F 28.4 °F 75% 29.71 in 3.0 mi South 8.1 mph - N/A   Haze
12:35 PM 35.6 °F 28.6 °F 28.4 °F 75% 29.71 in 2.0 mi SW 9.2 mph - N/A   Haze
12:55 PM 33.8 °F 27.7 °F 28.4 °F 81% 29.70 in 1.8 mi SW 6.9 mph - N/A   Haze
1:15 PM 33.8 °F 27.7 °F 28.4 °F 81% 29.69 in 1.8 mi SSW 6.9 mph - N/A   Haze
1:35 PM 33.8 °F 29.6 °F 28.4 °F 81% 29.68 in 2.5 mi SSW 4.6 mph - N/A   Haze
1:55 PM 33.8 °F 27.7 °F 28.4 °F 81% 29.68 in 2.5 mi South 6.9 mph - N/A   Haze
2:15 PM 33.8 °F 27.0 °F 28.4 °F 81% 29.68 in 4.0 mi SSW 8.1 mph - N/A   Haze
2:35 PM 35.6 °F 29.9 °F 28.4 °F 75% 29.67 in 7.0 mi SW 6.9 mph - N/A   Overcast
2:55 PM 35.6 °F 30.7 °F 28.4 °F 75% 29.68 in 10.0 mi WSW 5.8 mph - N/A   Overcast
3:15 PM 35.6 °F 31.7 °F 28.4 °F 75% 29.68 in 10.0 mi SW 4.6 mph - N/A   Overcast
3:35 PM 35.6 °F 32.8 °F 28.4 °F 75% 29.68 in 10.0 mi WSW 3.5 mph - N/A   Overcast
3:55 PM 35.6 °F 29.2 °F 28.4 °F 75% 29.68 in 7.0 mi West 8.1 mph - N/A   Overcast
6:35 PM 33.8 °F - 26.6 °F 75% 29.68 in 7.0 mi Calm Calm - N/A   Overcast
6:55 PM 33.8 °F - 26.6 °F 75% 29.68 in 7.0 mi Calm Calm - N/A   Overcast
7:15 PM 33.8 °F - 26.6 °F 75% 29.68 in 7.0 mi Calm Calm - N/A   Overcast
7:35 PM 33.8 °F - 28.4 °F 81% 29.68 in 5.0 mi Calm Calm - N/A   Haze
7:55 PM 33.8 °F - 28.4 °F 81% 29.68 in 5.0 mi Calm Calm - N/A   Haze
8:15 PM 33.8 °F - 28.4 °F 81% 29.68 in 5.0 mi Calm Calm - N/A   Haze
8:35 PM 33.8 °F - 28.4 °F 81% 29.68 in 5.0 mi Calm Calm - N/A   Haze
8:55 PM 33.8 °F 30.8 °F 28.4 °F 81% 29.67 in 5.0 mi SSE 3.5 mph - N/A   Haze
9:15 PM 33.8 °F 30.8 °F 28.4 °F 81% 29.67 in 5.0 mi SE 3.5 mph - N/A   Haze
9:35 PM 33.8 °F - 28.4 °F 81% 29.67 in 5.0 mi Calm Calm - N/A   Haze
9:55 PM 33.8 °F 30.8 °F 28.4 °F 81% 29.65 in 5.0 mi ESE 3.5 mph - N/A   Haze
10:15 PM 33.8 °F 29.6 °F 28.4 °F 81% 29.65 in 5.0 mi ESE 4.6 mph - N/A   Haze
10:35 PM 35.6 °F 31.7 °F 30.2 °F 81% 29.65 in 5.0 mi ESE 4.6 mph - N/A   Haze
10:55 PM 33.8 °F 29.6 °F 28.4 °F 81% 29.65 in 5.0 mi ESE 4.6 mph - N/A   Haze
11:15 PM 33.8 °F 27.7 °F 28.4 °F 81% 29.64 in 5.0 mi ESE 6.9 mph - N/A   Haze
11:35 PM 33.8 °F 30.8 °F 28.4 °F 81% 29.63 in 5.0 mi ESE 3.5 mph - N/A   Haze
11:55 PM 33.8 °F 30.8 °F 28.4 °F 81% 29.63 in 5.0 mi ESE 3.5 mph - N/A   Haze